CW6538 Cattolica IT current weather conditions

sailwx.info

Wind from 176 at 3 knots gusting 4

Air temperature 20.6° C
Dewpoint 15.5° C

Last reported at 2014-Aug-23 04:44 UTC.
Time now 2014-Aug-23 05:36 UTC

Location: N 43°58' E 012°44'.
View on Google Maps.

See reports from other nearby stations

  
Tides and Currents Weather Stations Pressure Air Temp Water Temp Dewpoint Dewpoint Depression Visibility Wind Speed Wind Dir Waves Ship Positions
date/time (UTC)wind fromknots sea level pressurealtimeterstation pressurevisibilityair tempwater tempwave heightnotes
2014-Aug-23 04:44 176 3 gusting 4 20.6
2014-Aug-23 04:39 176 2 gusting 4 20.6
2014-Aug-23 04:34 177 1 gusting 4 21.1
2014-Aug-23 04:29 177 2 gusting 5 21.1
2014-Aug-23 04:24 177 4 gusting 5 21.1
2014-Aug-23 04:19 231 1 gusting 4 21.1
2014-Aug-23 04:14 231 1 gusting 4 21.1
2014-Aug-23 04:09 231 0 gusting 2 21.1
2014-Aug-23 04:04 231 21.1
2014-Aug-23 03:59 231 21.1
2014-Aug-23 03:54 231 21.1
2014-Aug-23 03:49 231 1 gusting 2 21.1
2014-Aug-23 03:44 231 21.1
2014-Aug-23 03:39 231 21.1
2014-Aug-23 03:34 231 21.7
2014-Aug-23 03:29 231 1 gusting 4 21.7
2014-Aug-23 03:24 231 1 gusting 4 21.7
2014-Aug-23 03:19 232 21.7
2014-Aug-23 03:14 232 1 gusting 3 21.7
2014-Aug-23 03:09 232 1 gusting 3 21.7
2014-Aug-23 03:04 232 21.7
2014-Aug-23 02:59 232 1 gusting 4 21.7
2014-Aug-23 02:54 253 0 gusting 4 21.7
2014-Aug-23 02:49 254 21.1
2014-Aug-23 02:44 251 1 gusting 3 21.1
2014-Aug-23 02:39 188 21.1
2014-Aug-23 02:34 188 21.1
2014-Aug-23 02:29 188 21.1
2014-Aug-23 02:24 188 21.1
2014-Aug-23 02:19 188 21.1
2014-Aug-23 02:14 188 21.1
2014-Aug-23 02:09 188 21.1
2014-Aug-23 02:04 188 1 gusting 4 21.1
2014-Aug-23 01:59 188 0 gusting 4 21.1
2014-Aug-23 01:54 188 3 gusting 5 21.1
2014-Aug-23 01:49 189 2 gusting 5 21.1
2014-Aug-23 01:44 182 3 gusting 7 21.1
2014-Aug-23 01:39 197 4 gusting 7 21.1
2014-Aug-23 01:34 203 4 gusting 6 21.1
2014-Aug-23 01:29 209 4 gusting 6 21.1
2014-Aug-23 01:24 200 4 gusting 6 21.1
2014-Aug-23 01:19 172 2 gusting 4 21.1
2014-Aug-23 01:14 172 3 gusting 5 21.1
2014-Aug-23 01:09 171 4 gusting 6 21.1
2014-Aug-23 01:04 151 5 gusting 6 21.1
2014-Aug-23 00:59 167 3 gusting 5 21.1
2014-Aug-23 00:54 167 3 gusting 5 21.1
2014-Aug-23 00:49 167 2 gusting 5 21.1
2014-Aug-23 00:44 174 2 gusting 4 21.1
2014-Aug-23 00:39 174 1 gusting 4 21.1
2014-Aug-23 00:34 174 2 gusting 5 21.1
2014-Aug-23 00:29 174 2 gusting 5 21.1
2014-Aug-23 00:24 187 2 gusting 5 21.1
2014-Aug-23 00:19 187 3 gusting 5 21.1
2014-Aug-23 00:14 187 2 gusting 6 21.1
2014-Aug-23 00:09 192 4 gusting 6 21.1
2014-Aug-23 00:04 194 3 gusting 6 20.6
2014-Aug-22 23:59 194 3 gusting 5 20.6
2014-Aug-22 23:54 218 3 gusting 5 20.6
2014-Aug-22 23:49 219 3 gusting 5 20.6
2014-Aug-22 23:44 200 2 gusting 4 20.6
2014-Aug-22 23:39 200 2 gusting 5 20.6
2014-Aug-22 23:34 200 3 gusting 5 21.1
2014-Aug-22 23:29 203 0 gusting 5 21.1
2014-Aug-22 23:24 190 1 gusting 4 21.1
2014-Aug-22 23:19 190 2 gusting 4 21.1
2014-Aug-22 23:14 190 1 gusting 4 21.1
2014-Aug-22 23:09 190 2 gusting 4 21.1
2014-Aug-22 23:04 190 3 gusting 4 21.1
2014-Aug-22 22:59 190 2 gusting 5 21.1
2014-Aug-22 22:54 196 3 gusting 5 21.1
2014-Aug-22 22:49 196 1 gusting 4 21.1
2014-Aug-22 22:44 196 3 gusting 4 21.1
2014-Aug-22 22:39 198 2 gusting 4 21.1
2014-Aug-22 22:34 207 2 gusting 4 21.1
2014-Aug-22 22:29 209 0 gusting 4 21.1
2014-Aug-22 22:24 208 3 gusting 4 21.1
2014-Aug-22 22:19 208 0 gusting 5 21.7
2014-Aug-22 22:14 208 3 gusting 5 21.7
2014-Aug-22 22:09 208 3 gusting 4 21.7
2014-Aug-22 22:05 213 1 gusting 4 21.7
2014-Aug-22 21:59 187 1 gusting 4 21.7
2014-Aug-22 21:54 174 2 gusting 4 21.7
2014-Aug-22 21:49 174 3 gusting 4 21.7
2014-Aug-22 21:44 174 2 gusting 4 21.7
2014-Aug-22 21:39 174 3 gusting 4 21.7
2014-Aug-22 21:29 174 1 gusting 3 22.2
2014-Aug-22 21:24 174 2 gusting 3 22.2
2014-Aug-22 21:19 174 0 gusting 4 22.2
2014-Aug-22 21:14 174 2 gusting 4 22.2
2014-Aug-22 21:09 174 2 gusting 2 22.2
2014-Aug-22 21:04 174 0 gusting 3 22.2
2014-Aug-22 20:59 174 1 gusting 4 22.2
2014-Aug-22 20:54 174 1 gusting 4 22.2
2014-Aug-22 20:49 174 2 gusting 5 22.8
2014-Aug-22 20:44 171 3 gusting 5 22.8
2014-Aug-22 20:39 181 2 gusting 4 22.8
2014-Aug-22 20:34 181 0 gusting 4 22.8
2014-Aug-22 20:29 181 2 gusting 4 22.8
2014-Aug-22 20:24 180 1 gusting 4 22.8
2014-Aug-22 20:19 141 3 gusting 4 22.8
2014-Aug-22 20:14 140 22.8
2014-Aug-22 20:09 140 2 gusting 3 22.8
2014-Aug-22 20:04 140 22.8
2014-Aug-22 19:59 140 22.8
2014-Aug-22 19:54 140 23.3
2014-Aug-22 19:49 140 23.3
2014-Aug-22 19:44 140 23.3
2014-Aug-22 19:39 140 1 gusting 3 23.3
2014-Aug-22 19:34 123 0 gusting 2 23.3
2014-Aug-22 19:29 122 23.3
2014-Aug-22 19:19 121 23.3
2014-Aug-22 19:14 121 0 gusting 4 23.3
2014-Aug-22 19:09 121 23.3
2014-Aug-22 19:04 158 1 gusting 4 23.3
2014-Aug-22 18:59 166 1 gusting 5 23.3
2014-Aug-22 18:54 147 3 gusting 5 23.9
2014-Aug-22 18:49 136 2 gusting 4 23.9
2014-Aug-22 18:44 165 0 gusting 4 23.9
2014-Aug-22 18:39 165 23.9
2014-Aug-22 18:34 165 3 gusting 5 23.9
2014-Aug-22 18:29 167 4 gusting 6 23.9
2014-Aug-22 18:24 155 2 gusting 6 23.9
2014-Aug-22 18:19 138 2 gusting 5 23.9
2014-Aug-22 18:14 123 2 gusting 4 23.9
2014-Aug-22 18:09 124 1 gusting 6 23.9
2014-Aug-22 18:04 124 2 gusting 6 24.4
2014-Aug-22 17:59 105 3 gusting 5 24.4
2014-Aug-22 17:54 101 3 gusting 5 24.4
2014-Aug-22 17:49 107 2 gusting 4 24.4
2014-Aug-22 17:44 107 2 gusting 5 24.4
2014-Aug-22 17:39 108 2 gusting 5 24.4
2014-Aug-22 17:34 106 1 gusting 4 24.4
2014-Aug-22 17:29 121 1 gusting 5 24.4
2014-Aug-22 17:24 113 2 gusting 5 24.4
2014-Aug-22 17:19 090 2 gusting 5 24.4
2014-Aug-22 17:14 094 2 gusting 5 25.0
2014-Aug-22 17:09 102 2 gusting 5 25.0
2014-Aug-22 17:04 144 3 gusting 6 25.0
2014-Aug-22 16:59 155 3 gusting 6 25.0
2014-Aug-22 16:54 111 2 gusting 6 25.0
2014-Aug-22 16:49 119 4 gusting 6 25.0
2014-Aug-22 16:44 130 3 gusting 6 25.0
2014-Aug-22 16:39 114 4 gusting 6 25.0
2014-Aug-22 16:34 144 2 gusting 6 25.0
2014-Aug-22 16:29 109 2 gusting 6 25.0
2014-Aug-22 16:24 080 4 gusting 6 25.0
2014-Aug-22 16:19 098 3 gusting 6 25.0
2014-Aug-22 16:14 119 3 gusting 6 25.0
2014-Aug-22 16:09 119 3 gusting 6 25.0
2014-Aug-22 16:04 130 3 gusting 5 25.0
2014-Aug-22 15:59 159 1 gusting 6 25.0
2014-Aug-22 15:54 148 2 gusting 5 25.6
2014-Aug-22 15:49 050 25.6
2014-Aug-22 15:44 050 2 gusting 6 25.0
2014-Aug-22 15:39 069 5 gusting 8 25.6
2014-Aug-22 15:34 103 6 gusting 8 25.6
2014-Aug-22 15:29 039 5 gusting 8 25.6
2014-Aug-22 15:24 021 5 gusting 9 25.6
2014-Aug-22 15:19 055 5 gusting 10 25.6
2014-Aug-22 15:14 066 7 gusting 10 25.6
2014-Aug-22 15:09 042 6 gusting 11 25.6
2014-Aug-22 15:04 063 6 gusting 11 25.6
2014-Aug-22 14:59 065 5 gusting 10 25.6
2014-Aug-22 14:54 040 7 gusting 11 25.6
2014-Aug-22 14:49 079 7 gusting 11 25.6
2014-Aug-22 14:44 064 6 gusting 10 25.6
2014-Aug-22 14:39 069 6 gusting 9 25.6
2014-Aug-22 14:34 080 6 gusting 10 25.6
2014-Aug-22 14:29 035 4 gusting 10 25.6
2014-Aug-22 14:24 048 7 gusting 10 25.6
2014-Aug-22 14:19 024 6 gusting 10 25.6
2014-Aug-22 14:14 101 7 gusting 11 25.6
2014-Aug-22 14:09 077 7 gusting 12 25.6
2014-Aug-22 14:04 032 6 gusting 12 25.6
2014-Aug-22 13:59 070 6 gusting 11 26.1
2014-Aug-22 13:54 046 6 gusting 13 26.1
2014-Aug-22 13:49 063 8 gusting 13 26.1
2014-Aug-22 13:44 078 6 gusting 13 26.1
2014-Aug-22 13:39 042 6 gusting 13 26.1
2014-Aug-22 13:34 034 6 gusting 13 26.1
2014-Aug-22 13:29 103 6 gusting 13 26.1
2014-Aug-22 13:24 032 7 gusting 13 25.6
2014-Aug-22 13:19 039 7 gusting 15 26.1
2014-Aug-22 13:14 067 6 gusting 15 26.1
2014-Aug-22 13:09 065 8 gusting 13 26.7
2014-Aug-22 13:04 064 6 gusting 13 27.2
2014-Aug-22 12:59 044 7 gusting 13 26.7
2014-Aug-22 12:54 083 7 gusting 13 26.7
2014-Aug-22 12:49 055 8 gusting 13 26.7
2014-Aug-22 12:44 058 8 gusting 13 26.7
2014-Aug-22 12:39 044 6 gusting 13 26.7
2014-Aug-22 12:34 095 6 gusting 12 26.7
2014-Aug-22 12:29 069 7 gusting 12 26.7
2014-Aug-22 12:24 051 7 gusting 11 26.1
2014-Aug-22 12:19 096 6 gusting 11 26.1
2014-Aug-22 12:14 048 8 gusting 13 26.1
2014-Aug-22 12:09 071 7 gusting 12 26.7
2014-Aug-22 12:04 076 6 gusting 12 26.1
2014-Aug-22 11:54 043 7 gusting 12 26.7
2014-Aug-22 11:49 051 8 gusting 13 26.7
2014-Aug-22 11:44 049 8 gusting 13 26.7
2014-Aug-22 11:39 029 7 gusting 13 26.1
2014-Aug-22 11:34 036 8 gusting 16 26.1
2014-Aug-22 11:29 078 8 gusting 16 26.1
2014-Aug-22 11:24 066 6 gusting 15 26.1
2014-Aug-22 11:19 064 8 gusting 15 26.1
2014-Aug-22 11:14 065 6 gusting 11 26.1
2014-Aug-22 11:09 072 4 gusting 12 26.1
2014-Aug-22 11:04 056 6 gusting 13 26.1
2014-Aug-22 10:59 031 6 gusting 11 25.6
2014-Aug-22 10:54 088 4 gusting 11 25.6
2014-Aug-22 10:49 071 6 gusting 11 26.1
2014-Aug-22 10:44 020 6 gusting 12 26.1
2014-Aug-22 10:39 048 6 gusting 10 26.1
2014-Aug-22 10:34 079 6 gusting 9 26.1
2014-Aug-22 10:29 034 6 gusting 12 25.6
2014-Aug-22 10:24 011 7 gusting 12 26.1
2014-Aug-22 10:19 331 6 gusting 10 25.6
2014-Aug-22 10:14 042 7 gusting 13 25.6
2014-Aug-22 10:09 044 6 gusting 13 25.6
2014-Aug-22 10:04 057 7 gusting 10 25.6
2014-Aug-22 09:59 031 6 gusting 10 25.6
2014-Aug-22 09:54 047 6 gusting 10 25.6
2014-Aug-22 09:49 049 6 gusting 8 25.6
2014-Aug-22 09:39 030 5 gusting 9 25.6
2014-Aug-22 09:34 039 4 gusting 8 25.6
2014-Aug-22 09:29 065 6 gusting 7 25.6
2014-Aug-22 09:24 022 4 gusting 8 25.6
2014-Aug-22 09:19 057 5 gusting 8 25.0
2014-Aug-22 09:14 033 6 gusting 8 25.0
2014-Aug-22 09:09 040 6 gusting 9 25.0
2014-Aug-22 09:04 039 6 gusting 9 25.0
2014-Aug-22 08:59 017 5 gusting 8 24.4
2014-Aug-22 08:54 037 6 gusting 8 24.4
2014-Aug-22 08:49 011 4 gusting 7 25.0
2014-Aug-22 08:44 055 3 gusting 7 24.4
2014-Aug-22 08:39 360 5 gusting 7 24.4
2014-Aug-22 08:34 034 4 gusting 6 24.4
2014-Aug-22 08:29 009 4 gusting 7 24.4
2014-Aug-22 08:24 005 5 gusting 7 24.4
2014-Aug-22 08:19 036 3 gusting 6 24.4
2014-Aug-22 08:14 009 1 gusting 6 23.9
2014-Aug-22 08:09 039 4 gusting 6 23.9
2014-Aug-22 08:04 055 4 gusting 6 24.4
2014-Aug-22 07:59 021 5 gusting 6 23.9
2014-Aug-22 07:54 019 3 gusting 6 23.9
2014-Aug-22 07:49 005 3 gusting 6 23.3
2014-Aug-22 07:44 036 3 gusting 6 22.8
2014-Aug-22 07:39 029 2 gusting 6 22.8
2014-Aug-22 07:34 047 3 gusting 5 22.2
2014-Aug-22 07:29 350 3 gusting 6 22.2
2014-Aug-22 07:24 009 2 gusting 6 22.2
2014-Aug-22 07:19 360 2 gusting 6 22.2
2014-Aug-22 07:14 345 4 gusting 5 22.2
2014-Aug-22 07:09 345 0 gusting 6 22.2
2014-Aug-22 07:04 336 4 gusting 6 22.2
2014-Aug-22 06:59 355 4 gusting 6 21.7
2014-Aug-22 06:54 245 0 gusting 1 21.7
2014-Aug-22 06:49 234 21.1
2014-Aug-22 06:44 234 21.1
2014-Aug-22 06:39 179 21.1
2014-Aug-22 06:34 179 21.1
2014-Aug-22 06:29 179 20.6
2014-Aug-22 06:24 179 20.6
2014-Aug-22 06:19 179 1 gusting 3 20.6
2014-Aug-22 06:14 179 0 gusting 3 20.0
2014-Aug-22 06:04 179 0 gusting 2 19.4
2014-Aug-22 05:59 179 0 gusting 2 19.4
2014-Aug-22 05:54 179 1 gusting 3 19.4
2014-Aug-22 05:49 179 0 gusting 2 19.4
2014-Aug-22 05:44 179 0 gusting 3 19.4
2014-Aug-22 05:39 179 1 gusting 4 19.4
2014-Aug-22 05:34 182 18.9
2014-Aug-22 05:29 192 1 gusting 4 18.9
2014-Aug-22 05:24 196 18.9
2014-Aug-22 05:19 196 18.9
2014-Aug-22 05:14 196 18.9
2014-Aug-22 05:09 196 18.9
2014-Aug-22 05:04 196 1 gusting 6 18.9
2014-Aug-22 04:59 197 4 gusting 6 18.9
2014-Aug-22 04:54 204 4 gusting 6 18.9
2014-Aug-22 04:49 205 2 gusting 6 18.9
2014-Aug-22 04:44 183 4 gusting 5 18.9
2014-Aug-22 04:39 183 1 gusting 5 19.4
2014-Aug-22 04:34 186 2 gusting 5 19.4
2014-Aug-22 04:29 168 4 gusting 5 19.4
2014-Aug-22 04:24 175 4 gusting 5 19.4
2014-Aug-22 04:19 207 3 gusting 4 19.4
2014-Aug-22 04:14 207 19.4
2014-Aug-22 04:09 209 3 gusting 6 19.4
2014-Aug-22 04:04 180 0 gusting 5 19.4
2014-Aug-22 03:59 181 0 gusting 5 19.4
2014-Aug-22 03:49 196 3 gusting 5 19.4
2014-Aug-22 03:44 182 3 gusting 5 19.4
2014-Aug-22 03:39 159 1 gusting 6 19.4
2014-Aug-22 03:34 236 1 gusting 6 19.4
2014-Aug-22 03:29 178 1 gusting 5 19.4
2014-Aug-22 03:24 205 3 gusting 5 19.4
2014-Aug-22 03:19 207 0 gusting 5 20.0
2014-Aug-22 03:14 207 2 gusting 5 20.0
2014-Aug-22 03:09 207 2 gusting 5 20.0
2014-Aug-22 03:04 209 2 gusting 6 20.0
2014-Aug-22 02:59 213 3 gusting 6 20.0
2014-Aug-22 02:54 186 4 gusting 6 20.6
2014-Aug-22 02:49 219 20.6
2014-Aug-22 02:44 219 20.6
2014-Aug-22 02:39 219 2 gusting 3 20.6
2014-Aug-22 02:34 301 20.6
2014-Aug-22 02:29 301 20.6
2014-Aug-22 02:24 301 0 gusting 4 20.6
2014-Aug-22 02:19 301 20.6
2014-Aug-22 02:14 302 1 gusting 6 20.6
2014-Aug-22 02:09 302 2 gusting 6 20.6
2014-Aug-22 02:04 286 4 gusting 6 20.6
2014-Aug-22 01:59 346 4 gusting 6 20.6
2014-Aug-22 01:54 190 0 gusting 4 20.6
2014-Aug-22 01:49 190 1 gusting 5 20.6
2014-Aug-22 01:44 190 3 gusting 5 20.6
2014-Aug-22 01:39 236 2 gusting 5 20.6
2014-Aug-22 01:34 292 20.6
2014-Aug-22 01:24 292 0 gusting 2 21.1
2014-Aug-22 01:19 294 21.1
2014-Aug-22 01:14 294 1 gusting 5 21.1
2014-Aug-22 01:09 202 21.1
2014-Aug-22 01:04 207 5 gusting 6 21.1
2014-Aug-22 00:59 296 0 gusting 5 21.1
2014-Aug-22 00:54 296 3 gusting 5 21.1
2014-Aug-22 00:49 218 1 gusting 6 21.1
2014-Aug-22 00:44 165 4 gusting 6 21.1
2014-Aug-22 00:39 177 3 gusting 6 21.1
2014-Aug-22 00:34 180 4 gusting 6 21.1
2014-Aug-22 00:29 188 3 gusting 5 21.1
2014-Aug-22 00:24 190 3 gusting 5 21.1
2014-Aug-22 00:19 192 3 gusting 6 21.1
2014-Aug-22 00:14 190 4 gusting 6 21.1
2014-Aug-22 00:09 196 4 gusting 6 21.1
2014-Aug-22 00:04 189 3 gusting 5 21.1
2014-Aug-21 23:59 189 3 gusting 6 21.1
2014-Aug-21 23:54 192 4 gusting 5 21.1
2014-Aug-21 23:49 174 3 gusting 5 21.1
2014-Aug-21 23:44 176 3 gusting 5 21.1
2014-Aug-21 23:39 168 3 gusting 5 21.1
2014-Aug-21 23:34 155 3 gusting 6 21.1
2014-Aug-21 23:29 169 4 gusting 6 21.1
2014-Aug-21 23:24 167 3 gusting 6 21.1
2014-Aug-21 23:19 167 4 gusting 6 21.1
2014-Aug-21 23:14 182 3 gusting 6 21.1
2014-Aug-21 23:09 175 3 gusting 6 21.1
2014-Aug-21 23:04 158 3 gusting 6 21.7
2014-Aug-21 22:59 184 4 gusting 6 21.7
2014-Aug-21 22:54 170 4 gusting 6 21.7
2014-Aug-21 22:49 172 4 gusting 6 21.7
2014-Aug-21 22:44 150 3 gusting 6 21.7
2014-Aug-21 22:39 165 4 gusting 6 21.7
2014-Aug-21 22:34 186 4 gusting 6 21.7
2014-Aug-21 22:29 159 3 gusting 6 21.7
2014-Aug-21 22:24 175 4 gusting 6 22.2
2014-Aug-21 22:19 160 3 gusting 6 22.2
2014-Aug-21 22:14 161 3 gusting 6 22.2
2014-Aug-21 22:09 175 3 gusting 5 22.2
2014-Aug-21 22:05 169 3 gusting 6 22.2
2014-Aug-21 21:59 164 4 gusting 6 22.2
2014-Aug-21 21:54 162 4 gusting 6 22.2
2014-Aug-21 21:49 155 4 gusting 6 22.2
2014-Aug-21 21:44 167 5 gusting 6 22.2
2014-Aug-21 21:39 175 4 gusting 6 22.2
2014-Aug-21 21:34 164 5 gusting 5 22.8
2014-Aug-21 21:29 167 3 gusting 5 22.8
2014-Aug-21 21:24 171 2 gusting 4 22.8
2014-Aug-21 21:19 171 2 gusting 5 22.8
2014-Aug-21 21:14 171 1 gusting 5 22.8
2014-Aug-21 21:09 188 1 gusting 5 22.8
2014-Aug-21 21:04 171 3 gusting 6 22.8
2014-Aug-21 20:59 187 2 gusting 6 22.8
2014-Aug-21 20:54 176 4 gusting 6 22.8
2014-Aug-21 20:49 176 3 gusting 6 22.8
2014-Aug-21 20:44 181 3 gusting 6 22.8
2014-Aug-21 20:39 160 4 gusting 6 22.8
2014-Aug-21 20:34 163 1 gusting 2 22.8
2014-Aug-21 20:29 163 22.8
2014-Aug-21 20:24 163 22.8
2014-Aug-21 20:19 163 22.8
2014-Aug-21 20:14 163 23.3
2014-Aug-21 20:09 163 1 gusting 4 23.3
2014-Aug-21 20:04 163 1 gusting 4 23.3
2014-Aug-21 19:59 163 23.3
2014-Aug-21 19:54 163 1 gusting 4 23.3
2014-Aug-21 19:49 163 0 gusting 4 23.3
2014-Aug-21 19:44 171 3 gusting 4 23.3
2014-Aug-21 19:39 171 23.3
2014-Aug-21 19:34 171 2 gusting 4 23.3
2014-Aug-21 19:29 171 1 gusting 4 23.3
2014-Aug-21 19:24 171 0 gusting 5 23.3
2014-Aug-21 19:19 171 3 gusting 5 23.9
2014-Aug-21 19:14 189 0 gusting 4 23.9
2014-Aug-21 19:09 155 1 gusting 5 23.9
2014-Aug-21 19:04 155 2 gusting 5 23.9
2014-Aug-21 18:59 155 1 gusting 4 23.9
2014-Aug-21 18:54 155 1 gusting 4 23.9
2014-Aug-21 18:49 155 23.9
2014-Aug-21 18:44 155 23.9
2014-Aug-21 18:39 166 0 gusting 4 23.9
2014-Aug-21 18:34 167 1 gusting 4 23.9
2014-Aug-21 18:29 145 1 gusting 4 24.4
2014-Aug-21 18:24 145 1 gusting 4 24.4
2014-Aug-21 18:19 146 0 gusting 4 24.4
2014-Aug-21 18:14 147 1 gusting 4 24.4
2014-Aug-21 18:09 152 1 gusting 5 24.4
2014-Aug-21 18:04 140 3 gusting 6 24.4
2014-Aug-21 17:59 126 3 gusting 6 24.4
2014-Aug-21 17:54 160 24.4
2014-Aug-21 17:49 171 4 gusting 6 24.4
2014-Aug-21 17:44 154 3 gusting 6 24.4
2014-Aug-21 17:39 128 3 gusting 7 24.4
2014-Aug-21 17:34 158 4 gusting 7 24.4
2014-Aug-21 17:29 089 3 gusting 7 24.4
2014-Aug-21 17:24 131 5 gusting 7 24.4
2014-Aug-21 17:19 150 5 gusting 7 25.0
2014-Aug-21 17:14 152 5 gusting 8 25.0
2014-Aug-21 17:09 129 4 gusting 10 25.0
2014-Aug-21 17:04 142 6 gusting 10 25.0
2014-Aug-21 16:59 122 3 gusting 8 25.0
2014-Aug-21 16:54 131 5 gusting 8 25.0
2014-Aug-21 16:49 078 2 gusting 8 25.0
2014-Aug-21 16:44 096 5 gusting 7 25.6
2014-Aug-21 16:39 147 5 gusting 8 25.6
2014-Aug-21 16:34 088 5 gusting 7 25.6
2014-Aug-21 16:29 090 4 gusting 7 25.6
2014-Aug-21 16:24 089 2 gusting 7 25.6
2014-Aug-21 16:19 153 5 gusting 9 25.6
2014-Aug-21 16:14 096 5 gusting 9 25.6
2014-Aug-21 16:09 106 5 gusting 9 25.6
2014-Aug-21 16:04 084 6 gusting 9 25.6
2014-Aug-21 15:59 072 6 gusting 9 26.1
2014-Aug-21 15:54 094 3 gusting 7 26.1
2014-Aug-21 15:49 084 2 gusting 8 26.1
2014-Aug-21 15:44 102 5 gusting 10 26.1
2014-Aug-21 15:39 095 6 gusting 9 26.1
2014-Aug-21 15:34 088 6 gusting 9 25.6
2014-Aug-21 15:29 108 5 gusting 9 26.1
2014-Aug-21 15:24 086 6 gusting 10 26.1
2014-Aug-21 15:19 053 6 gusting 9 26.1
2014-Aug-21 15:14 108 6 gusting 11 26.1
2014-Aug-21 15:09 117 6 gusting 11 26.1
2014-Aug-21 15:04 075 6 gusting 11 26.1
2014-Aug-21 14:54 100 6 gusting 10 26.1
2014-Aug-21 14:49 131 5 gusting 11 26.1
2014-Aug-21 14:44 103 6 gusting 10 26.1
2014-Aug-21 14:39 117 4 gusting 10 26.1
2014-Aug-21 14:34 080 6 gusting 10 26.1
2014-Aug-21 14:29 130 7 gusting 10 26.1
2014-Aug-21 14:24 070 7 gusting 12 25.6
2014-Aug-21 14:19 103 6 gusting 12 25.6
2014-Aug-21 14:09 106 6 gusting 11 26.1
2014-Aug-21 14:04 076 4 gusting 9 26.1
2014-Aug-21 13:59 099 6 gusting 9 26.7
2014-Aug-21 13:54 073 5 gusting 9 26.7
2014-Aug-21 13:49 059 6 gusting 10 26.7
2014-Aug-21 13:44 103 6 gusting 10 26.7
2014-Aug-21 13:39 044 5 gusting 9 26.7
2014-Aug-21 13:34 057 5 gusting 9 26.1
2014-Aug-21 13:29 071 5 gusting 10 26.7
2014-Aug-21 13:24 070 6 gusting 10 26.7
2014-Aug-21 13:19 017 6 gusting 10 26.7
2014-Aug-21 13:14 037 6 gusting 11 26.7
2014-Aug-21 13:09 052 8 gusting 12 26.7
2014-Aug-21 13:04 055 8 gusting 12 26.7
2014-Aug-21 12:59 034 7 gusting 11 26.7
2014-Aug-21 12:54 072 7 gusting 12 27.2
2014-Aug-21 12:49 063 7 gusting 12 26.7
2014-Aug-21 12:44 057 4 gusting 11 26.7
2014-Aug-21 12:39 036 6 gusting 12 26.7
2014-Aug-21 12:34 059 6 gusting 12 26.7
2014-Aug-21 12:29 049 8 gusting 12 27.2
2014-Aug-21 12:24 009 6 gusting 12 27.2
2014-Aug-21 12:19 355 7 gusting 12 27.2
2014-Aug-21 12:14 048 7 gusting 12 27.8
2014-Aug-21 12:09 030 6 gusting 10 27.8
2014-Aug-21 12:04 005 6 gusting 11 27.8
2014-Aug-21 11:59 347 7 gusting 11 27.2
2014-Aug-21 11:54 005 6 gusting 12 26.7
2014-Aug-21 11:49 030 6 gusting 13 27.2
2014-Aug-21 11:44 034 6 gusting 13 27.8
2014-Aug-21 11:39 005 7 gusting 13 28.3
2014-Aug-21 11:34 043 7 gusting 11 27.8
2014-Aug-21 11:29 038 7 gusting 13 27.8
2014-Aug-21 11:24 355 8 gusting 13 27.2
2014-Aug-21 11:19 013 10 gusting 13 27.8
2014-Aug-21 11:14 063 6 gusting 11 28.3
2014-Aug-21 11:09 020 6 gusting 13 28.3
2014-Aug-21 11:04 355 9 gusting 13 27.8
2014-Aug-21 10:59 005 8 gusting 15 27.8
2014-Aug-21 10:54 005 7 gusting 15 27.8
2014-Aug-21 10:49 005 7 gusting 11 27.8
2014-Aug-21 10:44 009 7 gusting 13 27.8
2014-Aug-21 10:39 009 7 gusting 13 27.8
2014-Aug-21 10:34 028 7 gusting 12 27.8
2014-Aug-21 10:29 011 7 gusting 12 27.2
2014-Aug-21 10:24 005 9 gusting 12 27.2
2014-Aug-21 10:19 026 7 gusting 10 27.2
2014-Aug-21 10:14 005 5 gusting 8 27.2
2014-Aug-21 10:09 011 5 gusting 8 27.2
2014-Aug-21 10:04 024 5 gusting 9 27.2
2014-Aug-21 09:59 026 6 gusting 9 26.7
2014-Aug-21 09:54 300 4 gusting 11 27.2
2014-Aug-21 09:49 338 7 gusting 11 27.2
2014-Aug-21 09:44 338 4 gusting 7 27.2
2014-Aug-21 09:39 360 4 gusting 7 27.2
2014-Aug-21 09:34 038 6 gusting 9 27.2
2014-Aug-21 09:29 315 6 gusting 9 26.7
2014-Aug-21 09:24 325 4 gusting 10 26.7
2014-Aug-21 09:19 344 6 gusting 10 26.7
2014-Aug-21 09:14 019 6 gusting 9 27.2
2014-Aug-21 09:09 005 4 gusting 9 26.7
2014-Aug-21 09:04 313 6 gusting 9 26.1
2014-Aug-21 08:59 360 6 gusting 8 26.1
2014-Aug-21 08:54 017 5 gusting 9 26.1
2014-Aug-21 08:49 321 6 gusting 9 25.6
2014-Aug-21 08:44 340 6 gusting 8 25.6
2014-Aug-21 08:39 355 5 gusting 9 25.6
2014-Aug-21 08:34 331 6 gusting 9 25.6
2014-Aug-21 08:29 011 4 gusting 7 25.6
2014-Aug-21 08:24 014 4 gusting 7 25.6
2014-Aug-21 08:19 029 5 gusting 7 25.6
2014-Aug-21 08:14 011 5 gusting 7 25.6
2014-Aug-21 08:09 327 4 gusting 8 25.0
2014-Aug-21 08:04 348 6 gusting 8 24.4
2014-Aug-21 07:59 334 6 gusting 8 25.0
2014-Aug-21 07:54 355 6 gusting 8 25.0
2014-Aug-21 07:49 346 6 gusting 8 25.0
2014-Aug-21 07:44 005 6 gusting 10 25.0
2014-Aug-21 07:39 360 6 gusting 10 24.4
2014-Aug-21 07:34 355 3 gusting 8 24.4
2014-Aug-21 07:29 355 6 gusting 8 24.4
2014-Aug-21 07:24 351 1 gusting 7 24.4
2014-Aug-21 07:19 355 6 gusting 7 24.4
2014-Aug-21 07:14 360 4 gusting 6 24.4
2014-Aug-21 07:09 360 0 gusting 5 23.9
2014-Aug-21 06:59 009 1 gusting 6 23.9
2014-Aug-21 06:54 009 4 gusting 6 23.9
2014-Aug-21 06:49 355 3 gusting 5 23.9
2014-Aug-21 06:44 340 0 gusting 6 23.3
2014-Aug-21 06:39 344 4 gusting 6 23.3
2014-Aug-21 06:34 331 1 gusting 4 22.8
2014-Aug-21 06:29 289 0 gusting 3 22.8
2014-Aug-21 06:24 188 22.2
2014-Aug-21 06:19 188 22.2
2014-Aug-21 06:14 188 21.7
2014-Aug-21 06:09 188 21.7
2014-Aug-21 06:04 188 21.7
2014-Aug-21 05:59 188 1 gusting 4 21.7
2014-Aug-21 05:54 188 21.7
2014-Aug-21 05:49 188 21.7
2014-Aug-21 05:44 188 1 gusting 2 21.7
2014-Aug-21 05:39 188 21.7
2014-Aug-21 05:34 188 21.7
2014-Aug-21 05:29 188 21.7
2014-Aug-21 05:24 188 21.7
2014-Aug-21 05:19 188 21.1
2014-Aug-21 05:14 188 21.1
2014-Aug-21 05:09 188 21.1
2014-Aug-21 05:04 188 21.1